Flag for Tajikistan Weather past 2 weeks in Dushanbe, Tajikistan

Now
79 °F

Clear.


Feels Like: 79 °F
Forecast: 74 / 97 °F
Wind: 3 mph from East

Location: Dushanbe Airport

Current Time: Jul 23, 2014 at 11:27:57 PM

Latest Report: Jul 23, 2014 at 11:00 PM


Visibility: 4 mi

Pressure: 29.65 "Hg

Humidity: 42%

Dew point: 54 °F

Location of DushanbeLocation

Historic Weather in Dushanbe — Graph

°F

Dushanbe temperature yesterday

Maximum temperature yesterday: 104 °F (at 4:30 PM)
Minimum temperature yesterday: 70 °F (at 4:00 AM)
Average temperature yesterday: 88 °F

Past Weeks' High & Low Weather Summary

 TemperatureHumidityPressure
High104 °F (Jul 22, 4:30 PM)64% (Jul 16, 6:00 AM)29.80 "Hg (Jul 16, 6:00 AM)
Low64 °F (Jul 18, 4:30 AM)8% (Jul 11, 4:30 PM)29.56 "Hg (Jul 22, 4:00 PM)
Average83 °F29%29.71 "Hg
* Reported Jul 8 10:00 PM — Jul 23 10:30 PM, Dushanbe, Weather by CustomWeather, © 2014

Note: Actual official high and low records may vary slightly from our data, if they occured in-between our weather recording intervals... More about our weather records

Advertising

Dushanbe weather history for July 13, 2014

 ConditionsComfort  
Time TempWeatherWind HumidityBarometerVisibility
12:00 AM
Jul 13
79 °FPassing clouds.3 mph34%29.71 "HgN/A
12:30 AM79 °FPassing clouds.6 mph32%29.71 "HgN/A
1:00 AM79 °FPassing clouds.3 mph34%29.71 "HgN/A
1:30 AM79 °FPassing clouds.1 mph32%29.71 "HgN/A
2:00 AM77 °FPassing clouds.3 mph34%29.71 "HgN/A
2:30 AM77 °FPassing clouds.1 mph34%29.71 "HgN/A
3:00 AM73 °FPassing clouds.1 mph44%29.71 "HgN/A
3:30 AM75 °FPassing clouds.1 mph41%29.71 "HgN/A
4:00 AM77 °FPassing clouds.3 mph36%29.71 "HgN/A
4:30 AM75 °FPassing clouds.1 mph41%29.71 "HgN/A
5:00 AM73 °FPassing clouds.1 mph44%29.71 "HgN/A
5:30 AM73 °FScattered clouds.No wind44%29.74 "HgN/A
6:00 AM73 °FScattered clouds.1 mph44%29.74 "HgN/A
6:30 AM75 °FScattered clouds.No wind47%29.74 "HgN/A
7:00 AM77 °FScattered clouds.No wind44%29.74 "HgN/A
7:30 AM79 °FScattered clouds.1 mph39%29.77 "HgN/A
8:00 AM81 °FScattered clouds.3 mph37%29.77 "Hg6 mi
8:30 AM82 °FPassing clouds.1 mph35%29.77 "HgN/A
9:00 AM84 °FPassing clouds.1 mph33%29.77 "HgN/A
9:30 AM88 °FPassing clouds.3 mph31%29.77 "Hg5 mi
10:00 AM90 °FPassing clouds.3 mph27%29.77 "HgN/A
10:30 AM91 °FPassing clouds.1 mph21%29.77 "HgN/A
11:00 AM93 °FPassing clouds.1 mph19%29.77 "HgN/A
11:30 AM93 °FPassing clouds.3 mph19%29.77 "HgN/A
12:00 PM93 °FPassing clouds.3 mph17%29.77 "HgN/A
12:30 PM95 °FPassing clouds.3 mph16%29.74 "HgN/A
1:00 PM95 °FPassing clouds.6 mph18%29.74 "HgN/A
1:30 PM97 °FPassing clouds.3 mph16%29.74 "HgN/A
2:00 PM97 °FPassing clouds.1 mph18%29.74 "HgN/A
2:30 PM97 °FPassing clouds.3 mph17%29.74 "HgN/A
3:00 PM97 °FPassing clouds.3 mph16%29.74 "HgN/A
3:30 PM97 °FPassing clouds.3 mph14%29.71 "HgN/A
4:00 PM97 °FPassing clouds.8 mph19%29.71 "HgN/A
4:30 PM97 °FPassing clouds.6 mph19%29.71 "HgN/A
5:00 PM97 °FPassing clouds.8 mph18%29.71 "HgN/A
5:30 PM95 °FPassing clouds.8 mph18%29.71 "HgN/A
6:00 PM95 °FPassing clouds.8 mph19%29.71 "HgN/A
6:30 PM93 °FPassing clouds.6 mph21%29.71 "HgN/A
7:00 PM90 °FPassing clouds.6 mph24%29.74 "HgN/A
7:30 PM88 °FPassing clouds.6 mph25%29.74 "HgN/A
8:00 PM86 °FPassing clouds.1 mph25%29.74 "Hg6 mi
8:30 PM86 °FPassing clouds.1 mph27%29.74 "Hg6 mi
9:00 PM84 °FPassing clouds.1 mph31%29.74 "Hg5 mi
9:30 PM81 °FPassing clouds.1 mph37%29.77 "Hg5 mi
10:00 PM81 °FPassing clouds.3 mph37%29.77 "Hg6 mi
10:30 PM81 °FPassing clouds.1 mph34%29.77 "Hg6 mi
11:00 PM79 °FPassing clouds.1 mph34%29.77 "HgN/A
11:30 PM75 °FPassing clouds.3 mph44%29.77 "Hg5 mi
Weather by CustomWeather, © 2014

See weather overviewHow to use our weather pages